Location: Ajisawe
(8.4333°N, 4.3833°E)
Time: 20:56:46
(UTC+00:00)

Vanguard 2 Rocket - Pass Details

Date: 26 April 2021
Orbit: 554 x 3326 km, 32.9° (Epoch: 16 May)

Event Time Altitude Azimuth Distance (km) Brightness Sun altitude
Rises 17:37:49 0° 306° (NW) 7,309 13.0 2.6°
Reaches altitude 10° 17:42:57 10° 309° (NW) 6,254 12.5 1.3°
Maximum altitude 18:02:33 70° 31° (NNE) 2,756 9.3 -3.4°
Drops below altitude 10° 18:14:57 10° 113° (ESE) 4,205 9.6 -6.3°
Enters shadow 18:15:51 - 114° (ESE) 4,426 9.7 -6.5°
Sets 18:17:39 0° 115° (ESE) 4,895 - -7.0°
